Flag for Finland Weather past 2 weeks in Vaasa, Finland

Now
45 °F

Partly sunny.


Feels Like: 39 °F
Forecast: 34 / 45 °F
Wind: 10 mph from North

Location: Vaasa Airport

Current Time: Apr 18, 2015 at 7:54:29 PM

Latest Report: Apr 18, 2015 at 7:20 PM


Visibility: N/A

Pressure: 30.04 "Hg

Humidity: 61%

Dew point: 32 °F

Location of VaasaLocation

Historic Weather in Vaasa — Graph

°F

Vaasa temperature yesterday

Maximum temperature yesterday: 43 °F (at 2:20 PM)
Minimum temperature yesterday: 32 °F (at 11:50 PM)
Average temperature yesterday: 38 °F

Past Weeks' High & Low Weather Summary

 TemperatureHumidityPressure
High57 °F (Apr 12, 1:50 PM)100% (Apr 3, 6:20 PM)30.27 "Hg (Apr 3, 6:20 PM)
Low27 °F (Apr 18, 5:50 AM)37% (Apr 8, 2:50 PM)29.24 "Hg (Apr 16, 6:20 AM)
Average38 °F80%29.77 "Hg
* Reported Apr 3 6:20 PM — Apr 18 6:20 PM, Vaasa, Weather by CustomWeather, © 2015

Note: Actual official high and low records may vary slightly from our data, if they occured in-between our weather recording intervals... More about our weather records

Advertising

Vaasa weather history for previous 24 hours

 ConditionsComfort  
Time TempWeatherWind HumidityBarometerVisibility
6:20 PM
Sat, Apr 18
46 °FOvercast.13 mph57%30.04 "HgN/A
5:50 PM46 °FPartly sunny.16 mph57%30.04 "HgN/A
5:20 PM46 °FScattered clouds.13 mph57%30.04 "HgN/A
4:50 PM46 °FPassing clouds.12 mph53%30.04 "HgN/A
4:20 PM46 °FSunny.12 mph57%30.04 "Hg10 mi
3:50 PM46 °FPassing clouds.15 mph53%30.04 "HgN/A
3:20 PM46 °FPartly sunny.14 mph57%30.04 "HgN/A
2:50 PM46 °FPartly sunny.12 mph53%30.04 "HgN/A
2:20 PM46 °FPartly sunny.12 mph53%30.04 "HgN/A
1:50 PM46 °FPartly sunny.9 mph57%30.04 "HgN/A
1:20 PM45 °FOvercast.7 mph57%30.04 "HgN/A
12:50 PM45 °FOvercast.9 mph61%30.04 "HgN/A
12:20 PM45 °FOvercast.6 mph61%30.04 "HgN/A
11:50 AM43 °FOvercast.6 mph66%30.04 "HgN/A
11:20 AM41 °FPartly sunny.6 mph70%30.07 "HgN/A
10:50 AM39 °FOvercast.7 mph75%30.07 "HgN/A
10:20 AM37 °FMostly cloudy.7 mph81%30.07 "HgN/A
9:50 AM37 °FOvercast.7 mph81%30.07 "HgN/A
9:20 AM37 °FOvercast.8 mph81%30.07 "HgN/A
8:50 AM36 °FPartly sunny.6 mph93%30.07 "HgN/A
8:20 AM34 °FSunny.3 mph93%30.07 "Hg10 mi
7:50 AM32 °FSunny.1 mph100%30.07 "Hg10 mi
7:20 AM28 °FIce fog.No wind100%30.07 "Hg3 mi
6:50 AM28 °FIce fog.2 mph93%30.07 "Hg1 mi
6:20 AM27 °FIce fog.No wind100%30.07 "Hg0 mi
5:50 AM27 °FIce fog.No wind100%30.07 "Hg0 mi
5:20 AM28 °FIce fog.1 mph100%30.07 "Hg0 mi
4:50 AM28 °FIce fog.2 mph100%30.07 "Hg3 mi
4:20 AM28 °FClear.3 mph100%30.09 "Hg5 mi
3:50 AM28 °FClear.2 mph100%30.07 "Hg4 mi
3:20 AM30 °FClear.1 mph93%30.07 "Hg5 mi
2:50 AM30 °FClear.2 mph93%30.09 "Hg10 mi
2:20 AM30 °FClear.3 mph93%30.09 "Hg10 mi
1:50 AM30 °FClear.3 mph100%30.09 "Hg10 mi
1:20 AM32 °FClear.3 mph93%30.09 "Hg10 mi
12:50 AM32 °FClear.3 mph93%30.07 "Hg10 mi
12:20 AM32 °FClear.2 mph93%30.07 "Hg10 mi
11:50 PM
Fri, Apr 17
32 °FPassing clouds.3 mph87%30.07 "HgN/A
11:20 PM34 °FClear.2 mph87%30.07 "Hg10 mi
10:50 PM34 °FClear.3 mph81%30.07 "Hg10 mi
10:20 PM36 °FClear.5 mph81%30.07 "Hg10 mi
9:50 PM36 °FSunny.6 mph75%30.04 "Hg10 mi
9:20 PM36 °FSunny.6 mph81%30.04 "Hg10 mi
8:50 PM37 °FSunny.7 mph75%30.04 "Hg10 mi
8:20 PM39 °FPassing clouds.8 mph70%30.04 "HgN/A
7:50 PM41 °FPassing clouds.8 mph66%30.04 "HgN/A
7:20 PM41 °FSunny.14 mph61%30.04 "Hg10 mi
Weather by CustomWeather, © 2015

See weather overviewHow to use our weather pages